Year,Month,Day,Hour,Minute,Value (Times are PST for temperature in C)
2012,07,29,00,00,15.30
2012,07,29,00,01,15.30
2012,07,29,00,02,15.30
2012,07,29,00,03,15.30
2012,07,29,00,04,15.30
2012,07,29,00,05,15.30
2012,07,29,00,06,15.30
2012,07,29,00,07,15.30
2012,07,29,00,08,15.20
2012,07,29,00,09,15.20
2012,07,29,00,10,15.20
2012,07,29,00,11,15.10
2012,07,29,00,12,15.10
2012,07,29,00,13,15.10
2012,07,29,00,14,15.00
2012,07,29,00,15,15.00
2012,07,29,00,16,15.00
2012,07,29,00,17,15.00
2012,07,29,00,18,14.90
2012,07,29,00,19,14.90
2012,07,29,00,20,14.90
2012,07,29,00,21,14.90
2012,07,29,00,22,14.90
2012,07,29,00,23,14.90
2012,07,29,00,24,14.90
2012,07,29,00,25,14.90
2012,07,29,00,26,14.90
2012,07,29,00,27,14.80
2012,07,29,00,28,14.80
2012,07,29,00,29,14.80
2012,07,29,00,30,14.80
2012,07,29,00,31,14.80
2012,07,29,00,32,14.80
2012,07,29,00,33,14.80
2012,07,29,00,34,14.80
2012,07,29,00,35,14.80
2012,07,29,00,36,14.80
2012,07,29,00,37,14.80
2012,07,29,00,38,14.80
2012,07,29,00,39,14.80
2012,07,29,00,40,14.80
2012,07,29,00,41,14.80
2012,07,29,00,42,14.80
2012,07,29,00,43,14.80
2012,07,29,00,44,14.70
2012,07,29,00,45,14.70
2012,07,29,00,46,14.70
2012,07,29,00,47,14.70
2012,07,29,00,48,14.70
2012,07,29,00,49,14.60
2012,07,29,00,50,14.60
2012,07,29,00,51,14.60
2012,07,29,00,52,14.60
2012,07,29,00,53,14.60
2012,07,29,00,54,14.60
2012,07,29,00,55,14.60
2012,07,29,00,56,14.60
2012,07,29,00,57,14.60
2012,07,29,00,58,14.60
2012,07,29,00,59,14.60
2012,07,29,01,00,14.60
2012,07,29,01,01,14.50
2012,07,29,01,02,14.50
2012,07,29,01,03,14.50
2012,07,29,01,04,14.50
2012,07,29,01,05,14.50
2012,07,29,01,06,14.50
2012,07,29,01,07,14.50
2012,07,29,01,08,14.50
2012,07,29,01,09,14.40
2012,07,29,01,10,14.40
2012,07,29,01,11,14.40
2012,07,29,01,12,14.40
2012,07,29,01,13,14.40
2012,07,29,01,14,14.40
2012,07,29,01,15,14.30
2012,07,29,01,16,14.40
2012,07,29,01,17,14.40
2012,07,29,01,18,14.40
2012,07,29,01,19,14.40
2012,07,29,01,20,14.40
2012,07,29,01,21,14.40
2012,07,29,01,22,14.30
2012,07,29,01,23,14.30
2012,07,29,01,24,14.30
2012,07,29,01,25,14.30
2012,07,29,01,26,14.30
2012,07,29,01,27,14.20
2012,07,29,01,28,14.20
2012,07,29,01,29,14.20
2012,07,29,01,30,14.20
2012,07,29,01,31,14.20
2012,07,29,01,32,14.20
2012,07,29,01,33,14.20
2012,07,29,01,34,14.20
2012,07,29,01,35,14.20
2012,07,29,01,36,14.20
2012,07,29,01,37,14.20
2012,07,29,01,38,14.20
2012,07,29,01,39,14.20
2012,07,29,01,40,14.20
2012,07,29,01,41,14.20
2012,07,29,01,42,14.20
2012,07,29,01,43,14.20
2012,07,29,01,44,14.20
2012,07,29,01,45,14.20
2012,07,29,01,46,14.20
2012,07,29,01,47,14.20
2012,07,29,01,48,14.20
2012,07,29,01,49,14.20
2012,07,29,01,50,14.20
2012,07,29,01,51,14.20
2012,07,29,01,52,14.20
2012,07,29,01,53,14.20
2012,07,29,01,54,14.20
2012,07,29,01,55,14.20
2012,07,29,01,56,14.20
2012,07,29,01,57,14.20
2012,07,29,01,58,14.20
2012,07,29,01,59,14.20
2012,07,29,02,00,14.20
2012,07,29,02,01,14.20
2012,07,29,02,02,14.30
2012,07,29,02,03,14.30
2012,07,29,02,04,14.30
2012,07,29,02,05,14.30
2012,07,29,02,06,14.30
2012,07,29,02,07,14.30
2012,07,29,02,08,14.30
2012,07,29,02,09,14.30
2012,07,29,02,10,14.30
2012,07,29,02,11,14.20
2012,07,29,02,12,14.20
2012,07,29,02,13,14.20
2012,07,29,02,14,14.20
2012,07,29,02,15,14.20
2012,07,29,02,16,14.20
2012,07,29,02,17,14.20
2012,07,29,02,18,14.20
2012,07,29,02,19,14.20
2012,07,29,02,20,14.20
2012,07,29,02,21,14.20
2012,07,29,02,22,14.20
2012,07,29,02,23,14.20
2012,07,29,02,24,14.20
2012,07,29,02,25,14.20
2012,07,29,02,26,14.20
2012,07,29,02,27,14.20
2012,07,29,02,28,14.20
2012,07,29,02,29,14.20
2012,07,29,02,30,14.20
2012,07,29,02,31,14.20
2012,07,29,02,32,14.20
2012,07,29,02,33,14.20
2012,07,29,02,34,14.20
2012,07,29,02,35,14.20
2012,07,29,02,36,14.20
2012,07,29,02,37,14.10
2012,07,29,02,38,14.20
2012,07,29,02,39,14.10
2012,07,29,02,40,14.20
2012,07,29,02,41,14.20
2012,07,29,02,42,14.20
2012,07,29,02,43,14.20
2012,07,29,02,44,14.20
2012,07,29,02,45,14.20
2012,07,29,02,46,14.20
2012,07,29,02,47,14.20
2012,07,29,02,48,14.20
2012,07,29,02,49,14.20
2012,07,29,02,50,14.10
2012,07,29,02,51,14.10
2012,07,29,02,52,14.10
2012,07,29,02,53,14.10
2012,07,29,02,54,14.00
2012,07,29,02,55,14.00
2012,07,29,02,56,14.00
2012,07,29,02,57,13.90
2012,07,29,02,58,13.90
2012,07,29,02,59,13.90
2012,07,29,03,00,13.80
2012,07,29,03,01,13.80
2012,07,29,03,02,13.70
2012,07,29,03,03,13.70
2012,07,29,03,04,13.70
2012,07,29,03,05,13.70
2012,07,29,03,06,13.70
2012,07,29,03,07,13.70
2012,07,29,03,08,13.70
2012,07,29,03,09,13.60
2012,07,29,03,10,13.60
2012,07,29,03,11,13.60
2012,07,29,03,12,13.50
2012,07,29,03,13,13.50
2012,07,29,03,14,13.50
2012,07,29,03,15,13.50
2012,07,29,03,16,13.40
2012,07,29,03,17,13.40
2012,07,29,03,18,13.40
2012,07,29,03,19,13.30
2012,07,29,03,20,13.30
2012,07,29,03,21,13.30
2012,07,29,03,22,13.30
2012,07,29,03,23,13.30
2012,07,29,03,24,13.30
2012,07,29,03,25,13.20
2012,07,29,03,26,13.20
2012,07,29,03,27,13.20
2012,07,29,03,28,13.20
2012,07,29,03,29,13.10
2012,07,29,03,30,13.10
2012,07,29,03,31,13.10
2012,07,29,03,32,13.10
2012,07,29,03,33,13.10
2012,07,29,03,34,13.00
2012,07,29,03,35,13.00
2012,07,29,03,36,13.00
2012,07,29,03,37,13.00
2012,07,29,03,38,13.00
2012,07,29,03,39,13.00
2012,07,29,03,40,12.90
2012,07,29,03,41,12.90
2012,07,29,03,42,12.90
2012,07,29,03,43,12.90
2012,07,29,03,44,12.90
2012,07,29,03,45,12.90
2012,07,29,03,46,12.90
2012,07,29,03,47,12.80
2012,07,29,03,48,12.90
2012,07,29,03,49,12.90
2012,07,29,03,50,12.90
2012,07,29,03,51,12.90
2012,07,29,03,52,12.90
2012,07,29,03,53,12.90
2012,07,29,03,54,12.90
2012,07,29,03,55,12.90
2012,07,29,03,56,12.90
2012,07,29,03,57,12.80
2012,07,29,03,58,12.80
2012,07,29,03,59,12.80
2012,07,29,04,00,12.80
2012,07,29,04,01,12.80
2012,07,29,04,02,12.80
2012,07,29,04,03,12.80
2012,07,29,04,04,12.80
2012,07,29,04,05,12.80
2012,07,29,04,06,12.80
2012,07,29,04,07,12.80
2012,07,29,04,08,12.80
2012,07,29,04,09,12.80
2012,07,29,04,10,12.80
2012,07,29,04,11,12.80
2012,07,29,04,12,12.80
2012,07,29,04,13,12.80
2012,07,29,04,14,12.80
2012,07,29,04,15,12.80
2012,07,29,04,16,12.80
2012,07,29,04,17,12.80
2012,07,29,04,18,12.80
2012,07,29,04,19,12.80
2012,07,29,04,20,12.80
2012,07,29,04,21,12.80
2012,07,29,04,22,12.80
2012,07,29,04,23,12.80
2012,07,29,04,24,12.80
2012,07,29,04,25,12.80
2012,07,29,04,26,12.80
2012,07,29,04,27,12.80
2012,07,29,04,28,12.80
2012,07,29,04,29,12.80
2012,07,29,04,30,12.80
2012,07,29,04,31,12.80
2012,07,29,04,32,12.80
2012,07,29,04,33,12.80
2012,07,29,04,34,12.80
2012,07,29,04,35,12.80
2012,07,29,04,36,12.80
2012,07,29,04,37,12.80
2012,07,29,04,38,12.70
2012,07,29,04,39,12.70
2012,07,29,04,40,12.60
2012,07,29,04,41,12.60
2012,07,29,04,42,12.60
2012,07,29,04,43,12.50
2012,07,29,04,44,12.50
2012,07,29,04,45,12.50
2012,07,29,04,46,12.40
2012,07,29,04,47,12.40
2012,07,29,04,48,12.40
2012,07,29,04,49,12.40
2012,07,29,04,50,12.40
2012,07,29,04,51,12.40
2012,07,29,04,52,12.40
2012,07,29,04,53,12.40
2012,07,29,04,54,12.40
2012,07,29,04,55,12.40
2012,07,29,04,56,12.40
2012,07,29,04,57,12.40
2012,07,29,04,58,12.40
2012,07,29,04,59,12.40
2012,07,29,05,00,12.40
2012,07,29,05,01,12.40
2012,07,29,05,02,12.40
2012,07,29,05,03,12.40
2012,07,29,05,04,12.40
2012,07,29,05,05,12.40
2012,07,29,05,06,12.40
2012,07,29,05,07,12.40
2012,07,29,05,08,12.30
2012,07,29,05,09,12.30
2012,07,29,05,10,12.30
2012,07,29,05,11,12.30
2012,07,29,05,12,12.30
2012,07,29,05,13,12.30
2012,07,29,05,14,12.30
2012,07,29,05,15,12.30
2012,07,29,05,16,12.20
2012,07,29,05,17,12.20
2012,07,29,05,18,12.20
2012,07,29,05,19,12.20
2012,07,29,05,20,12.10
2012,07,29,05,21,12.10
2012,07,29,05,22,12.10
2012,07,29,05,23,12.10
2012,07,29,05,24,12.00
2012,07,29,05,25,12.00
2012,07,29,05,26,12.00
2012,07,29,05,27,12.00
2012,07,29,05,28,12.00
2012,07,29,05,29,12.00
2012,07,29,05,30,12.00
2012,07,29,05,31,12.00
2012,07,29,05,32,12.10
2012,07,29,05,33,12.10
2012,07,29,05,34,12.10
2012,07,29,05,35,12.10
2012,07,29,05,36,12.20
2012,07,29,05,37,12.20
2012,07,29,05,38,12.20
2012,07,29,05,39,12.20
2012,07,29,05,40,12.20
2012,07,29,05,41,12.20
2012,07,29,05,42,12.20
2012,07,29,05,43,12.20
2012,07,29,05,44,12.20
2012,07,29,05,45,12.20
2012,07,29,05,46,12.10
2012,07,29,05,47,12.10
2012,07,29,05,48,12.10
2012,07,29,05,49,12.10
2012,07,29,05,50,12.10
2012,07,29,05,51,12.10
2012,07,29,05,52,12.10
2012,07,29,05,53,12.10
2012,07,29,05,54,12.10
2012,07,29,05,55,12.10
2012,07,29,05,56,12.10
2012,07,29,05,57,12.10
2012,07,29,05,58,12.10
2012,07,29,05,59,12.10
2012,07,29,06,00,12.10
2012,07,29,06,01,12.10
2012,07,29,06,02,12.20
2012,07,29,06,03,12.20
2012,07,29,06,04,12.20
2012,07,29,06,05,12.20
2012,07,29,06,06,12.20
2012,07,29,06,07,12.30
2012,07,29,06,08,12.30
2012,07,29,06,09,12.30
2012,07,29,06,10,12.30
2012,07,29,06,11,12.30
2012,07,29,06,12,12.40
2012,07,29,06,13,12.40
2012,07,29,06,14,12.50
2012,07,29,06,15,12.50
2012,07,29,06,16,12.50
2012,07,29,06,17,12.50
2012,07,29,06,18,12.50
2012,07,29,06,19,12.60
2012,07,29,06,20,12.60
2012,07,29,06,21,12.60
2012,07,29,06,22,12.60
2012,07,29,06,23,12.60
2012,07,29,06,24,12.60
2012,07,29,06,25,12.70
2012,07,29,06,26,12.80
2012,07,29,06,27,12.90
2012,07,29,06,28,13.00
2012,07,29,06,29,13.10
2012,07,29,06,30,13.20
2012,07,29,06,31,13.20
2012,07,29,06,32,13.30
2012,07,29,06,33,13.40
2012,07,29,06,34,13.40
2012,07,29,06,35,13.40
2012,07,29,06,36,13.50
2012,07,29,06,37,13.60
2012,07,29,06,38,13.60
2012,07,29,06,39,13.70
2012,07,29,06,40,13.70
2012,07,29,06,41,13.70
2012,07,29,06,42,13.70
2012,07,29,06,43,13.70
2012,07,29,06,44,13.80
2012,07,29,06,45,13.80
2012,07,29,06,46,13.90
2012,07,29,06,47,13.90
2012,07,29,06,48,13.90
2012,07,29,06,49,14.00
2012,07,29,06,50,14.00
2012,07,29,06,51,14.10
2012,07,29,06,52,14.10
2012,07,29,06,53,14.20
2012,07,29,06,54,14.20
2012,07,29,06,55,14.20
2012,07,29,06,56,14.20
2012,07,29,06,57,14.20
2012,07,29,06,58,14.20
2012,07,29,06,59,14.30
2012,07,29,07,00,14.30
2012,07,29,07,01,14.30
2012,07,29,07,02,14.40
2012,07,29,07,03,14.40
2012,07,29,07,04,14.40
2012,07,29,07,05,14.40
2012,07,29,07,06,14.50
2012,07,29,07,07,14.50
2012,07,29,07,08,14.50
2012,07,29,07,09,14.60
2012,07,29,07,10,14.60
2012,07,29,07,11,14.60
2012,07,29,07,12,14.60
2012,07,29,07,13,14.70
2012,07,29,07,14,14.70
2012,07,29,07,15,14.60
2012,07,29,07,16,14.60
2012,07,29,07,17,14.60
2012,07,29,07,18,14.60
2012,07,29,07,19,14.60
2012,07,29,07,20,14.60
2012,07,29,07,21,14.60
2012,07,29,07,22,14.60
2012,07,29,07,23,14.70
2012,07,29,07,24,14.70
2012,07,29,07,25,14.70
2012,07,29,07,26,14.80
2012,07,29,07,27,14.80
2012,07,29,07,28,14.80
2012,07,29,07,29,14.80
2012,07,29,07,30,14.90
2012,07,29,07,31,14.90
2012,07,29,07,32,15.00
2012,07,29,07,33,15.00
2012,07,29,07,34,15.10
2012,07,29,07,35,15.10
2012,07,29,07,36,15.10
2012,07,29,07,37,15.10
2012,07,29,07,38,15.10
2012,07,29,07,39,15.10
2012,07,29,07,40,15.10
2012,07,29,07,41,15.20
2012,07,29,07,42,15.20
2012,07,29,07,43,15.30
2012,07,29,07,44,15.30
2012,07,29,07,45,15.40
2012,07,29,07,46,15.40
2012,07,29,07,47,15.40
2012,07,29,07,48,15.50
2012,07,29,07,49,15.60
2012,07,29,07,50,15.70
2012,07,29,07,51,15.70
2012,07,29,07,52,15.70
2012,07,29,07,53,15.80
2012,07,29,07,54,15.80
2012,07,29,07,55,15.80
2012,07,29,07,56,15.80
2012,07,29,07,57,15.80
2012,07,29,07,58,15.80
2012,07,29,07,59,15.80
2012,07,29,08,00,15.70
2012,07,29,08,01,15.70
2012,07,29,08,02,15.60
2012,07,29,08,03,15.60
2012,07,29,08,04,15.70
2012,07,29,08,05,15.70
2012,07,29,08,06,15.80
2012,07,29,08,07,15.80
2012,07,29,08,08,15.80
2012,07,29,08,09,15.90
2012,07,29,08,10,15.90
2012,07,29,08,11,15.90
2012,07,29,08,12,15.90
2012,07,29,08,13,16.00
2012,07,29,08,14,16.10
2012,07,29,08,15,16.10
2012,07,29,08,16,16.10
2012,07,29,08,17,16.10
2012,07,29,08,18,16.00
2012,07,29,08,19,15.90
2012,07,29,08,20,16.00
2012,07,29,08,21,16.10
2012,07,29,08,22,16.10
2012,07,29,08,23,16.10
2012,07,29,08,24,16.20
2012,07,29,08,25,16.20
2012,07,29,08,26,16.30
2012,07,29,08,27,16.30
2012,07,29,08,28,16.40
2012,07,29,08,29,16.40
2012,07,29,08,30,16.40
2012,07,29,08,31,16.40
2012,07,29,08,32,16.40
2012,07,29,08,33,16.30
2012,07,29,08,34,16.20
2012,07,29,08,35,16.20
2012,07,29,08,36,16.30
2012,07,29,08,37,16.30
2012,07,29,08,38,16.40
2012,07,29,08,39,16.30
2012,07,29,08,40,16.30
2012,07,29,08,41,16.20
2012,07,29,08,42,16.20
2012,07,29,08,43,16.20
2012,07,29,08,44,16.30
2012,07,29,08,45,16.30
2012,07,29,08,46,16.30
2012,07,29,08,47,16.30
2012,07,29,08,48,16.30
2012,07,29,08,49,16.30
2012,07,29,08,50,16.30
2012,07,29,08,51,16.30
2012,07,29,08,52,16.30
2012,07,29,08,53,16.30
2012,07,29,08,54,16.30
2012,07,29,08,55,16.30
2012,07,29,08,56,16.30
2012,07,29,08,57,16.20
2012,07,29,08,58,16.30
2012,07,29,08,59,16.30
2012,07,29,09,00,16.30
2012,07,29,09,01,16.30
2012,07,29,09,02,16.30
2012,07,29,09,03,16.30
2012,07,29,09,04,16.30
2012,07,29,09,05,16.30
2012,07,29,09,06,16.70
2012,07,29,09,07,16.80
2012,07,29,09,08,16.80
2012,07,29,09,09,16.90
2012,07,29,09,10,16.80
2012,07,29,09,11,16.90
2012,07,29,09,12,16.90
2012,07,29,09,13,16.80
2012,07,29,09,14,16.70
2012,07,29,09,15,16.70
2012,07,29,09,16,16.70
2012,07,29,09,17,16.70
2012,07,29,09,18,16.80
2012,07,29,09,19,16.80
2012,07,29,09,20,16.70
2012,07,29,09,21,16.70
2012,07,29,09,22,16.70
2012,07,29,09,23,16.80
2012,07,29,09,24,16.90
2012,07,29,09,25,16.90
2012,07,29,09,26,16.90
2012,07,29,09,27,17.00
2012,07,29,09,28,17.00
2012,07,29,09,29,17.00
2012,07,29,09,30,17.00
2012,07,29,09,31,16.90
2012,07,29,09,32,16.90
2012,07,29,09,33,17.00
2012,07,29,09,34,17.00
2012,07,29,09,35,17.10
2012,07,29,09,36,17.20
2012,07,29,09,37,17.30
2012,07,29,09,38,17.30
2012,07,29,09,39,17.40
2012,07,29,09,40,17.40
2012,07,29,09,41,17.40
2012,07,29,09,42,17.40
2012,07,29,09,43,17.40
2012,07,29,09,44,17.40
2012,07,29,09,45,17.30
2012,07,29,09,46,17.50
2012,07,29,09,47,17.50
2012,07,29,09,48,17.50
2012,07,29,09,49,17.60
2012,07,29,09,50,17.70
2012,07,29,09,51,17.80
2012,07,29,09,52,17.80
2012,07,29,09,53,17.80
2012,07,29,09,54,17.80
2012,07,29,09,55,17.90
2012,07,29,09,56,18.00
2012,07,29,09,57,18.10
2012,07,29,09,58,18.20
2012,07,29,09,59,18.10
2012,07,29,10,00,18.00
2012,07,29,10,01,17.80
2012,07,29,10,02,17.70
2012,07,29,10,03,17.60
2012,07,29,10,04,17.60
2012,07,29,10,05,17.70
2012,07,29,10,06,17.90
2012,07,29,10,07,18.00
2012,07,29,10,08,18.10
2012,07,29,10,09,18.20
2012,07,29,10,10,18.30
2012,07,29,10,11,18.40
2012,07,29,10,12,18.50
2012,07,29,10,13,18.50
2012,07,29,10,14,18.40
2012,07,29,10,15,18.40
2012,07,29,10,16,18.40
2012,07,29,10,17,18.50
2012,07,29,10,18,18.60
2012,07,29,10,19,18.60
2012,07,29,10,20,18.60
2012,07,29,10,21,18.40
2012,07,29,10,22,18.30
2012,07,29,10,23,18.10
2012,07,29,10,24,18.10
2012,07,29,10,25,18.10
2012,07,29,10,26,17.90
2012,07,29,10,27,17.90
2012,07,29,10,28,17.90
2012,07,29,10,29,18.00
2012,07,29,10,30,18.10
2012,07,29,10,31,18.30
2012,07,29,10,32,18.50
2012,07,29,10,33,18.50
2012,07,29,10,34,18.50
2012,07,29,10,35,18.40
2012,07,29,10,36,18.30
2012,07,29,10,37,18.40
2012,07,29,10,38,18.40
2012,07,29,10,39,18.40
2012,07,29,10,40,18.40
2012,07,29,10,41,18.50
2012,07,29,10,42,18.50
2012,07,29,10,43,18.40
2012,07,29,10,44,18.40
2012,07,29,10,45,18.30
2012,07,29,10,46,18.30
2012,07,29,10,47,18.30
2012,07,29,10,48,18.40
2012,07,29,10,49,18.40
2012,07,29,10,50,18.40
2012,07,29,10,51,18.40
2012,07,29,10,52,18.50
2012,07,29,10,53,18.60
2012,07,29,10,54,18.70
2012,07,29,10,55,18.70
2012,07,29,10,56,18.60
2012,07,29,10,57,18.60
2012,07,29,10,58,18.60
2012,07,29,10,59,18.50
2012,07,29,11,00,18.50
2012,07,29,11,01,18.40
2012,07,29,11,02,18.40
2012,07,29,11,03,18.40
2012,07,29,11,04,18.40
2012,07,29,11,05,18.40
2012,07,29,11,06,18.50
2012,07,29,11,07,18.50
2012,07,29,11,08,18.60
2012,07,29,11,09,18.70
2012,07,29,11,10,18.70
2012,07,29,11,11,18.80
2012,07,29,11,12,18.80
2012,07,29,11,13,18.70
2012,07,29,11,14,18.80
2012,07,29,11,15,18.70
2012,07,29,11,16,18.70
2012,07,29,11,17,18.70
2012,07,29,11,18,18.70
2012,07,29,11,19,18.70
2012,07,29,11,20,18.70
2012,07,29,11,21,18.90
2012,07,29,11,22,18.90
2012,07,29,11,23,19.00
2012,07,29,11,24,19.10
2012,07,29,11,25,19.10
2012,07,29,11,26,19.10
2012,07,29,11,27,19.10
2012,07,29,11,28,19.10
2012,07,29,11,29,19.30
2012,07,29,11,30,19.30
2012,07,29,11,31,19.30
2012,07,29,11,32,19.30
2012,07,29,11,33,19.30
2012,07,29,11,34,19.20
2012,07,29,11,35,19.10
2012,07,29,11,36,19.10
2012,07,29,11,37,19.10
2012,07,29,11,38,19.10
2012,07,29,11,39,19.10
2012,07,29,11,40,19.20
2012,07,29,11,41,19.30
2012,07,29,11,42,19.40
2012,07,29,11,43,19.40
2012,07,29,11,44,19.30
2012,07,29,11,45,19.20
2012,07,29,11,46,19.10
2012,07,29,11,47,19.00
2012,07,29,11,48,18.90
2012,07,29,11,49,18.90
2012,07,29,11,50,19.00
2012,07,29,11,51,19.10
2012,07,29,11,52,19.10
2012,07,29,11,53,19.10
2012,07,29,11,54,19.10
2012,07,29,11,55,19.20
2012,07,29,11,56,19.30
2012,07,29,11,57,19.50
2012,07,29,11,58,19.50
2012,07,29,11,59,19.40
2012,07,29,12,00,19.50
2012,07,29,12,01,19.50
2012,07,29,12,02,19.50
2012,07,29,12,03,19.60
2012,07,29,12,04,19.60
2012,07,29,12,05,19.60
2012,07,29,12,06,19.70
2012,07,29,12,07,19.70
2012,07,29,12,08,19.70
2012,07,29,12,09,19.60
2012,07,29,12,10,19.60
2012,07,29,12,11,19.60
2012,07,29,12,12,19.80
2012,07,29,12,13,19.70
2012,07,29,12,14,19.70
2012,07,29,12,15,19.70
2012,07,29,12,16,19.80
2012,07,29,12,17,19.70
2012,07,29,12,18,19.70
2012,07,29,12,19,19.70
2012,07,29,12,20,19.90
2012,07,29,12,21,19.90
2012,07,29,12,22,20.00
2012,07,29,12,23,20.10
2012,07,29,12,24,20.10
2012,07,29,12,25,20.20
2012,07,29,12,26,20.10
2012,07,29,12,27,20.10
2012,07,29,12,28,20.20
2012,07,29,12,29,20.10
2012,07,29,12,30,20.10
2012,07,29,12,31,20.10
2012,07,29,12,32,20.10
2012,07,29,12,33,20.10
2012,07,29,12,34,20.10
2012,07,29,12,35,20.10
2012,07,29,12,36,20.00
2012,07,29,12,37,19.90
2012,07,29,12,38,19.90
2012,07,29,12,39,20.00
2012,07,29,12,40,20.10
2012,07,29,12,41,20.20
2012,07,29,12,42,20.30
2012,07,29,12,43,20.30
2012,07,29,12,44,20.30
2012,07,29,12,45,20.40
2012,07,29,12,46,20.50
2012,07,29,12,47,20.60
2012,07,29,12,48,20.50
2012,07,29,12,49,20.50
2012,07,29,12,50,20.50
2012,07,29,12,51,20.30
2012,07,29,12,52,20.20
2012,07,29,12,53,20.20
2012,07,29,12,54,20.20
2012,07,29,12,55,20.40
2012,07,29,12,56,20.40
2012,07,29,12,57,20.40
2012,07,29,12,58,20.30
2012,07,29,12,59,20.30
2012,07,29,13,00,20.20
2012,07,29,13,01,20.20
2012,07,29,13,02,20.20
2012,07,29,13,03,20.20
2012,07,29,13,04,20.10
2012,07,29,13,05,20.10
2012,07,29,13,06,20.10
2012,07,29,13,07,20.10
2012,07,29,13,08,20.00
2012,07,29,13,09,19.90
2012,07,29,13,10,19.90
2012,07,29,13,11,19.90
2012,07,29,13,12,20.00
2012,07,29,13,13,20.10
2012,07,29,13,14,20.30
2012,07,29,13,15,20.50
2012,07,29,13,16,20.60
2012,07,29,13,17,20.60
2012,07,29,13,18,20.60
2012,07,29,13,19,20.70
2012,07,29,13,20,20.80
2012,07,29,13,21,21.00
2012,07,29,13,22,21.10
2012,07,29,13,23,21.20
2012,07,29,13,24,21.20
2012,07,29,13,25,21.20
2012,07,29,13,26,21.30
2012,07,29,13,27,21.30
2012,07,29,13,28,21.30
2012,07,29,13,29,21.30
2012,07,29,13,30,21.20
2012,07,29,13,31,21.20
2012,07,29,13,32,21.10
2012,07,29,13,33,21.00
2012,07,29,13,34,20.90
2012,07,29,13,35,20.90
2012,07,29,13,36,20.90
2012,07,29,13,37,21.00
2012,07,29,13,38,20.90
2012,07,29,13,39,20.90
2012,07,29,13,40,20.80
2012,07,29,13,41,20.80
2012,07,29,13,42,20.80
2012,07,29,13,43,20.80
2012,07,29,13,44,20.80
2012,07,29,13,45,20.80
2012,07,29,13,46,20.80
2012,07,29,13,47,20.80
2012,07,29,13,48,20.90
2012,07,29,13,49,20.90
2012,07,29,13,50,20.90
2012,07,29,13,51,20.90
2012,07,29,13,52,20.80
2012,07,29,13,53,20.80
2012,07,29,13,54,20.90
2012,07,29,13,55,21.00
2012,07,29,13,56,21.10
2012,07,29,13,57,21.00
2012,07,29,13,58,21.00
2012,07,29,13,59,20.90
2012,07,29,14,00,20.90
2012,07,29,14,01,21.00
2012,07,29,14,02,21.00
2012,07,29,14,03,21.00
2012,07,29,14,04,21.00
2012,07,29,14,05,21.00
2012,07,29,14,06,21.10
2012,07,29,14,07,21.30
2012,07,29,14,08,21.20
2012,07,29,14,09,21.20
2012,07,29,14,10,21.30
2012,07,29,14,11,21.40
2012,07,29,14,12,21.40
2012,07,29,14,13,21.40
2012,07,29,14,14,21.30
2012,07,29,14,15,21.30
2012,07,29,14,16,21.20
2012,07,29,14,17,21.00
2012,07,29,14,18,21.00
2012,07,29,14,19,21.00
2012,07,29,14,20,21.00
2012,07,29,14,21,21.10
2012,07,29,14,22,21.20
2012,07,29,14,23,21.30
2012,07,29,14,24,21.30
2012,07,29,14,25,21.30
2012,07,29,14,26,21.40
2012,07,29,14,27,21.50
2012,07,29,14,28,21.50
2012,07,29,14,29,21.40
2012,07,29,14,30,21.40
2012,07,29,14,31,21.30
2012,07,29,14,32,21.20
2012,07,29,14,33,21.20
2012,07,29,14,34,21.30
2012,07,29,14,35,21.30
2012,07,29,14,36,21.50
2012,07,29,14,37,21.60
2012,07,29,14,38,21.60
2012,07,29,14,39,21.50
2012,07,29,14,40,21.40
2012,07,29,14,41,21.30
2012,07,29,14,42,21.30
2012,07,29,14,43,21.30
2012,07,29,14,44,21.30
2012,07,29,14,45,21.20
2012,07,29,14,46,21.10
2012,07,29,14,47,21.10
2012,07,29,14,48,21.20
2012,07,29,14,49,21.30
2012,07,29,14,50,21.30
2012,07,29,14,51,21.30
2012,07,29,14,52,21.30
2012,07,29,14,53,21.30
2012,07,29,14,54,21.30
2012,07,29,14,55,21.30
2012,07,29,14,56,21.30
2012,07,29,14,57,21.30
2012,07,29,14,58,21.20
2012,07,29,14,59,21.20
2012,07,29,15,00,21.30
2012,07,29,15,01,21.30
2012,07,29,15,02,21.40
2012,07,29,15,03,21.50
2012,07,29,15,04,21.60
2012,07,29,15,05,21.60
2012,07,29,15,06,21.60
2012,07,29,15,07,21.60
2012,07,29,15,08,21.60
2012,07,29,15,09,21.60
2012,07,29,15,10,21.60
2012,07,29,15,11,21.60
2012,07,29,15,12,21.60
2012,07,29,15,13,21.60
2012,07,29,15,14,21.70
2012,07,29,15,15,21.80
2012,07,29,15,16,21.80
2012,07,29,15,17,21.60
2012,07,29,15,18,21.60
2012,07,29,15,19,21.60
2012,07,29,15,20,21.60
2012,07,29,15,21,21.80
2012,07,29,15,22,21.80
2012,07,29,15,23,21.70
2012,07,29,15,24,21.70
2012,07,29,15,25,21.70
2012,07,29,15,26,21.70
2012,07,29,15,27,21.70
2012,07,29,15,28,21.70
2012,07,29,15,29,21.60
2012,07,29,15,30,21.60
2012,07,29,15,31,21.60
2012,07,29,15,32,21.70
2012,07,29,15,33,21.70
2012,07,29,15,34,21.80
2012,07,29,15,35,21.90
2012,07,29,15,36,21.90
2012,07,29,15,37,21.90
2012,07,29,15,38,21.90
2012,07,29,15,39,21.90
2012,07,29,15,40,21.80
2012,07,29,15,41,21.80
2012,07,29,15,42,21.70
2012,07,29,15,43,21.60
2012,07,29,15,44,21.60
2012,07,29,15,45,21.60
2012,07,29,15,46,21.60
2012,07,29,15,47,21.60
2012,07,29,15,48,21.70
2012,07,29,15,49,21.70
2012,07,29,15,50,21.70
2012,07,29,15,51,21.70
2012,07,29,15,52,21.70
2012,07,29,15,53,21.60
2012,07,29,15,54,21.70
2012,07,29,15,55,21.80
2012,07,29,15,56,21.70
2012,07,29,15,57,21.80
2012,07,29,15,58,21.90
2012,07,29,15,59,22.00
2012,07,29,16,00,22.00
2012,07,29,16,01,22.10
2012,07,29,16,02,22.10
2012,07,29,16,03,22.10
2012,07,29,16,04,22.10
2012,07,29,16,05,22.10
2012,07,29,16,06,22.00
2012,07,29,16,07,22.00
2012,07,29,16,08,21.90
2012,07,29,16,09,21.80
2012,07,29,16,10,21.80
2012,07,29,16,11,21.80
2012,07,29,16,12,21.90
2012,07,29,16,13,21.90
2012,07,29,16,14,22.00
2012,07,29,16,15,22.10
2012,07,29,16,16,22.10
2012,07,29,16,17,22.10
2012,07,29,16,18,22.10
2012,07,29,16,19,22.10
2012,07,29,16,20,22.10
2012,07,29,16,21,22.00
2012,07,29,16,22,22.10
2012,07,29,16,23,22.20
2012,07,29,16,24,22.30
2012,07,29,16,25,22.40
2012,07,29,16,26,22.40
2012,07,29,16,27,22.40
2012,07,29,16,28,22.40
2012,07,29,16,29,22.40
2012,07,29,16,30,22.30
2012,07,29,16,31,22.30
2012,07,29,16,32,22.30
2012,07,29,16,33,22.30
2012,07,29,16,34,22.20
2012,07,29,16,35,22.20
2012,07,29,16,36,22.30
2012,07,29,16,37,22.30
2012,07,29,16,38,22.40
2012,07,29,16,39,22.50
2012,07,29,16,40,22.60
2012,07,29,16,41,22.60
2012,07,29,16,42,22.60
2012,07,29,16,43,22.60
2012,07,29,16,44,22.70
2012,07,29,16,45,22.80
2012,07,29,16,46,22.80
2012,07,29,16,47,22.80
2012,07,29,16,48,22.80
2012,07,29,16,49,22.70
2012,07,29,16,50,22.60
2012,07,29,16,51,22.50
2012,07,29,16,52,22.40
2012,07,29,16,53,22.30
2012,07,29,16,54,22.30
2012,07,29,16,55,22.30
2012,07,29,16,56,22.30
2012,07,29,16,57,22.30
2012,07,29,16,58,22.20
2012,07,29,16,59,22.10
2012,07,29,17,00,22.10
2012,07,29,17,01,22.00
2012,07,29,17,02,22.00
2012,07,29,17,03,22.10
2012,07,29,17,04,22.00
2012,07,29,17,05,22.00
2012,07,29,17,06,22.10
2012,07,29,17,07,22.20
2012,07,29,17,08,22.20
2012,07,29,17,09,22.20
2012,07,29,17,10,22.20
2012,07,29,17,11,22.20
2012,07,29,17,12,22.20
2012,07,29,17,13,22.20
2012,07,29,17,14,22.30
2012,07,29,17,15,22.50
2012,07,29,17,16,22.50
2012,07,29,17,17,22.40
2012,07,29,17,18,22.30
2012,07,29,17,19,22.30